SL-14 DEB, 45270

Orbit data source: Space-Track

SL-14 DEB, 45270 is space debris in LEO originally from a launch on Thu, 15 Aug 1991 UTC launched from the Plesetsk Missile And Space Complex (PKMTR). Debris objects in space refer to the collection of defunct objects orbiting the Earth. Examples of debris include non-operational satellites, rocket bodies, and fragments generated from explosions, collisions, or faulty payload assembly.

Loading next visibility...
Identifier
45270, 1991-056G
Orbit
LEO
Country
Flag of CISCIS
Related business
Manufacturer
Unknown
Mission
Spacecraft
Bus & Motor
Unknown
Mass
Unknown
Launch date (UTC)
1991-08-15 (35 years ago)
Launch vehicle
Unknown
Launch site
Plesetsk Missile And Space Complex (PKMTR)
Object type
Payload
Rocket body
Debris
Shape & HBR
Unknown shape, 0.1 m
Radar Cross Section
Small (<0.1 m²)

Expand to show TLE details & history
Last TLE update: 10 hours ago

TLE from 10 hours ago
0 SL-14 DEB
1 45270U 91056G   26128.09684449  .00000185  00000-0  41206-3 0  9992
2 45270  82.5665 156.1109 0034023 140.7660 219.5941 13.22432476300751
Epoch: 2026-05-08T02:19Z
TLE epoch observation values (Epoch: 2026-05-08T02:19:27.363Z)
Latitude
-0.00004°
Longitude
-104.68665°
Altitude
1,198.101 km
Speed
7.245 km/s
True Right ascension
10h 24m 26s
True Declination
0° 00' 00"
Sunlit
Object was in daylight at epoch
Visualization orbit readout
Latitude
Unknown
Longitude
Unknown
Altitude
Unknown
Speed
Unknown
Apparent Right ascension
Unknown
Apparent Declination
Unknown
Sunlit
N/A
Visualization observer readout
Local Sidereal Time
20:00:54
Azimuth
Unknown
Elevation
Unknown
Doppler factor
Unknown
Orbital elements
Apogee altitude
1,198.37 km
Perigee altitude
1,146.989 km
Semi-major axis
7,550.817 km
Eccentricity
0.0034
Inclination
82.5665°
RAAN
156.1109°
Arg. of periapsis
140.766°
True anomaly
219.34643°
Mean anomaly
219.5941°
Eccentric anomaly
219.47018°
Mean motion
3.3079 °/min
Orbital period
108.83 mins
BSTAR
0.00041206
Loading maneuver chart data...
Computing Atmospheric mass density...
Loading historical data...
Loading historical data...
Loading historical data...
Loading historical data...
Loading historical data...
Loading historical data...
Loading historical data...

Documentation

Showing up to 5 results
|